Regional Weather Roundup
Issued by NWS

Home | Current Version | Previous Version | Graphics & Text | Print | Product List | Glossary On
Versions: 1 2 3 4 5 6 7 8 9 10 11 12 13 14 15 16 17 18 19 20 21 22 23 24 25 26 27 28 29 30 31 32 33 34 35 36 37 38 39 40 41 42 43 44 45 46 47 48 49 50
000
ASUS44 KMEG 200910
RWRTN
TENNESSEE HOURLY STATE WEATHER ROUNDUP
NATIONAL WEATHER SERVICE MEMPHIS TN
400 AM CDT FRI OCT 20 2017

TNZ002-004-019-021-049-052-054-088>092-201000-
WEST TENNESSEE

CITY           SKY/WX    TMP DP  RH WIND       PRES   REMARKS
MEMPHIS INTL   FAIR      59  51  75 S8        30.21S
NWS MEMPHIS      N/A     51 N/A N/A MISG        N/A
JACKSON        FAIR      44  43  96 CALM      30.23R
SOMERVILLE     CLEAR     48  48 100 CALM      30.21R
COVINGTON      FOG       45  43  93 CALM      30.22S VSB 1
UNION CITY     CLEAR     45  43  93 CALM      30.22S
BOLIVAR        CLEAR     43  43 100 CALM      30.22S FOG
PARIS          CLEAR     48  46  93 CALM      30.23R
HUNTINGDON     CLEAR     46  46 100 CALM      30.22S
LEXINGTON      CLEAR     43  43 100 CALM      30.24R
SELMER         CLEAR     46  46 100 CALM      30.23R
SAVANNAH       CLEAR     43  43 100 CALM      30.23R
$$

TNZ008-025-027-028-033-062-065-066-201000-
NORTH MIDDLE TENNESSEE

CITY           SKY/WX    TMP DP  RH WIND       PRES   REMARKS
NASHVILLE      FAIR      48  45  89 CALM      30.26S
PORTLAND       CLEAR     46  46 100 CALM      30.25R
CLARKSVILLE    FOG       46  44  93 CALM      30.25S VSB 1/2
SMYRNA         FAIR      43  43 100 CALM      30.27S FOG
COOKEVILLE     CLEAR     39  39 100 CALM      30.26S FOG
GALLATIN       CLEAR     45  43  93 CALM      30.29R
CROSSVILLE     FAIR      44  42  93 CALM      30.29S
$$

TNZ061-075-076-078-094-096-097-201000-
SOUTH MIDDLE TENNESSEE

CITY           SKY/WX    TMP DP  RH WIND       PRES   REMARKS
FAYETTEVILLE   CLEAR     46  46 100 CALM      30.25S
TULLAHOMA        N/A     39  37  93 CALM      30.27R
WINCHESTER     CLEAR     39  39 100 CALM        N/A
COLUMBIA       CLEAR     41  41 100 CALM      30.24R
SHELBYVILLE    CLEAR     46  45  93 SE3       30.25S
$$

TNZ017-018-042-046-047-201000-
NORTHEAST TENNESSEE

CITY           SKY/WX    TMP DP  RH WIND       PRES   REMARKS
TRI CITIES     FAIR      41  41 100 CALM      30.30S
ELIZABETHTON   CLEAR     43  41  93 CALM      30.31R
$$

TNZ012-013-036-069-073-074-201000-
CENTRAL EAST TENNESSEE

CITY           SKY/WX    TMP DP  RH WIND       PRES   REMARKS
KNOXVILLE      FAIR      46  46 100 CALM      30.27S
OAK RIDGE      LGT RAIN  46  46 100 CALM      30.30S VSB 1/4
DOWNTOWN KNOXV FOG       46  46 100 CALM      30.29S VSB 0
GATLINBURG     CLEAR     43  41  93 CALM      30.28S
MORRISTOWN     CLEAR     46  45  93 CALM      30.28S
JACKSBORO      FOG       43  43 100 CALM      30.33R VSB 0
$$

TNZ083-085-099-201000-
SOUTHEAST TENNESSEE

CITY           SKY/WX    TMP DP  RH WIND       PRES   REMARKS
CHATTANOOGA    FAIR      46  44  93 CALM      30.28S
DAYTON         FOG       45  45 100 CALM      30.27S VSB 1/4
$$

SKY/WX REPORTED AS FAIR MEANS FEW OR NO CLOUDS BELOW
12 THOUSAND FEET.





USA.gov is the U.S. government's official web portal to all federal, state and local government web resources and services.